Regional Weather Roundup
Issued by NWS Midland/Odessa, TX

Skip options and go directly to product.
Home | Oldest Version | Previous Version | Current Version | All | Text Only | Save Text | Print | Product List | Glossary On

Skip product version selection by date and time.   
548
ASUS44 KMAF 281810
RWRMAF
MIDLAND AREA WEATHER ROUNDUP
NATIONAL WEATHER SERVICE MIDLAND TX
100 PM CDT TUE JUN 28 2016

...IN SOUTHWEST TEXAS AND SOUTHEAST NEW MEXICO...

CITY           SKY/WX    TMP DP  RH WIND       PRES   REMARKS
ALPINE         CLOUDY    77  62  59 S9        30.33F
ANDREWS        FAIR      84  62  47 CALM      30.25F
ARTESIA        MOSUNNY   82  64  54 SE8G16    30.26F
BIG SPRING     CLOUDY    83  63  50 CALM      30.24F
CARLSBAD       CLOUDY    81  64  56 E7        30.23F
DRYDEN           N/A     89  66  46 VRB6      30.14F
FORT STOCKTON  MOSUNNY   88  62  41 E12       30.20F
GUAD PASS      CLOUDY    67  67 100 NE26      30.34F
HOBBS          PTSUNNY   82  59  44 NE6       30.28F
MARFA          MOSUNNY  N/A N/A N/A E12G18    30.31F
MIDLAND AIRPK  MOSUNNY   87  64  46 S5        30.24F
MIDLAND INTL   SUNNY     85  66  53 VRB3      30.23F
ODESSA         MOSUNNY   83  64  52 MISG      30.24F
PECOS          MOSUNNY   89  64  43 E12G21    30.17F
PRESIDIO       FAIR      88  62  42 E12G17    30.15F
SEMINOLE       PTSUNNY   84  60  43 S8        30.26F
SNYDER           N/A     84  64  50 CALM      30.22F
WINK           SUNNY     85  68  56 E13       30.20F
$$
...OTHER STATIONS IN TEXAS...

CITY           SKY/WX    TMP DP  RH WIND       PRES   REMARKS
ABILENE        MOSUNNY   94  66  39 N5        30.15F
AMARILLO       SUNNY     88  55  32 NE3       30.28F
AUSTIN         MOSUNNY   96  70  42 NE7       30.06F HX 102
BROWNSVILLE    PTSUNNY   82  71  69 SE12      30.03F
CORPUS CHRISTI MOSUNNY   94  69  44 CALM      30.03F
DALLAS FTW     PTSUNNY   96  69  41 N14G22    30.06F HX 102
DEL RIO        MOSUNNY   91  67  44 MISG      30.07F
EL PASO        LGT RAIN  74  67  78 NW5       30.23F
HOUSTON INT    PTSUNNY   92  74  55 CALM      30.01F HX 101
LUBBOCK        MOSUNNY   91  57  31 VRB5      30.25F
SAN ANGELO     SUNNY     90  69  50 VRB5      30.17F
SAN ANTONIO    MOSUNNY   91  69  48 CALM      30.09F
WACO           MOSUNNY   97  70  41 NW9       30.03F HX 103
WICHITA FALLS  NOT AVBL
$$
...OTHER LOCATIONS IN NEW MEXICO...

CITY           SKY/WX    TMP DP  RH WIND       PRES   REMARKS
ALAMAGORDO     MOSUNNY   81  57  44 NE6       30.27F
ALBUQUERQUE    MOSUNNY   85  48  27 S13       30.35F
CANNON AFB     SUNNY     82  55  39 SE6       30.32F
CLOVIS         SUNNY     82  57  42 SE3       30.32F
HOLLOMAN AFB   CLOUDY    82  58  44 VRB5      30.24F
ROSWELL        MOSUNNY   82  60  47 E7        30.28F
RUIDOSO        LGT RAIN  70  55  60 E14G24    30.48F
SANTA FE       SUNNY     85  44  23 SE18G25   30.41F
TRUTH OR CONSE CLOUDY    81  53  37 E8        30.29F
TUCUMCARI      SUNNY     86  47  25 VRB5      30.30F
$$

USA.gov is the U.S. government's official web portal to all federal, state and local government web resources and services.